This is the latest recevied weather packets stored in our database for station/object KE8WMS. If no packets are shown the sender has not sent any weather packets the latest 10 day(s).
| Time | Temp. | Humidity | Pressure | Rain* | Wind** | Luminosity | Snow |
|---|---|---|---|---|---|---|---|
| 1778097483 | 10° C | 71% | 1008.3 hPa | 0 mm | - | 147 W/m² | - |
| 1778097181 | 10° C | 72% | 1008.3 hPa | 0 mm | - | 169 W/m² | - |
| 1778096878 | 10° C | 72% | 1009.2 hPa | 0 mm | - | 189 W/m² | - |
| 1778096574 | 10.56° C | 72% | 1009.4 hPa | 0 mm | - | 197 W/m² | - |
| 1778096272 | 10.56° C | 71% | 1009.3 hPa | 0 mm | - | 255 W/m² | - |
| 1778095968 | 10.56° C | 71% | 1009.4 hPa | 0 mm | - | 274 W/m² | - |
| 1778095664 | 10.56° C | 72% | 1009.1 hPa | 0 mm | - | 392 W/m² | - |
| 1778095362 | 11.67° C | 70% | 1009.1 hPa | 0 mm | - | 300 W/m² | - |
| 1778095058 | 11.67° C | 70% | 1009.1 hPa | 0 mm | - | 846 W/m² | - |
| 1778094754 | 11.11° C | 67% | 1009.3 hPa | 0 mm | - | 345 W/m² | - |
| 1778094452 | 11.11° C | 71% | 1009.1 hPa | 0 mm | - | 416 W/m² | - |
| 1778094148 | 12.78° C | 68% | 1008.9 hPa | 0 mm | - | 390 W/m² | - |
| 1778093846 | 12.22° C | 68% | 1009.2 hPa | 0 mm | - | 443 W/m² | - |
| 1778093542 | 12.78° C | 67% | 1009.3 hPa | 0 mm | - | 404 W/m² | - |
| 1778093240 | 11.67° C | 66% | 1009.3 hPa | 0 mm | - | 777 W/m² | - |
| 1778092937 | 11.67° C | 69% | 1009.3 hPa | 0 mm | - | 755 W/m² | - |
| 1778092633 | 11.11° C | 70% | 1009.2 hPa | 0 mm | - | 325 W/m² | - |
| 1778092329 | 11.11° C | 71% | 1009.4 hPa | 0 mm | - | 672 W/m² | - |
| 1778092026 | 11.11° C | 71% | 1009.4 hPa | 0 mm | - | 624 W/m² | - |
| 1778091724 | 10.56° C | 74% | 1009.2 hPa | 0 mm | - | 658 W/m² | - |
| 1778091421 | 10° C | 76% | 1009.4 hPa | 0 mm | - | 500 W/m² | - |
| 1778091119 | 11.11° C | 75% | 1009.3 hPa | 0 mm | - | 420 W/m² | - |
| 1778090815 | 11.67° C | 73% | 1009.4 hPa | 0 mm | - | 653 W/m² | - |
| 1778090511 | 11.11° C | 78% | 1009.4 hPa | 0 mm | - | 796 W/m² | - |
| 1778090208 | 11.11° C | 74% | 1009.2 hPa | 0 mm | - | 626 W/m² | - |
* Rain latest hour (hover to see other rain measurements)
** Current wind speed in m/s (hover to see current wind gust speed)